sat.trackr.live / text

‹ back to catalog

SPEQTRE

NORAD 66769 · 2025-276DH

PAYLOAD ACTIVE UNKNOWN

§ Identity

Operator
Country
SING
Launch date
2025-11-28
Launch site
AFWTR
Launch vehicle
Mass (kg)
RCS (m²)

External: N2YO · Heavens-Above · Gunter

§ Orbital elements

Epoch: 2026-05-24T22:15:01.280160Z

Period
94.72 min
Inclination
97.4210°
Eccentricity
0.0000945
Mean motion
15.20253003 rev/d
Perigee alt
504.4 km
Apogee alt
505.7 km
Semi-major
6,883.2 km
B*
1.8503e-4
RAAN
219.1088°
Arg perigee
49.6569°
Mean anomaly
310.4748°
Rev number
2,690

§ Raw data

SPEQTRE1 66769U 25276DH  26144.92709815  .00003946  00000+0  18503-3 0  99952 66769  97.4210 219.1088 0000945  49.6569 310.4748 15.20253003 26900

JSON: /api/v1/satellites/66769 · /tle

For live sub-satellite position, see the globe view (requires WebGL).

§ Visibility from observer

Set your observer location to see the next 7 days of passes ≥ 10°. The values pass through the URL so the page stays shareable.

No JS? Fill the form by hand. The geolocation button needs JavaScript.